Regional Weather Roundup
Issued by NWS Kansas City/Pleasant Hill, MO

Home | Current Version | Previous Version | Graphics & Text | Print | Product List | Glossary Off
Versions: 1 2 3 4 5 6 7 8 9 10 11 12 13 14 15 16 17 18 19 20 21 22 23 24 25 26 27

000
ASUS43 KEAX 230910
RWREAX

WEATHER ROUNDUP FOR EASTERN KANSAS AND NORTHWEST MISSOURI
NATIONAL WEATHER SERVICE KANSAS CITY/PLEASANT HILL MO
400 AM CDT FRI JUN 23 2017

KSZ040-057-103>105-MOZ028-029-037-043-231000-
...KANSAS CITY METROPOLITAN AREA...

CITY           SKY/WX    TMP DP  RH WIND       PRES   REMARKS
K.C. INTL      CLOUDY    75  73  93 NW3       29.70R
K.C. DOWNTOWN  MOCLDY    80  73  79 CALM      29.68S
LEES SUMMIT    MOCLDY    76  74  93 SW7       29.69F
OLATHE - IXD   CLOUDY    75  72  90 S3        29.69F
OLATHE - OJC   PTCLDY    74  73  97 CALM      29.68F
LAWRENCE       CLOUDY    76  74  93 NW6       29.68F

$$

MOZ001>008-011>017-020>025-030>033-038>040-044>046-053-054-231000-
...NORTHERN AND CENTRAL MISSOURI...

CITY           SKY/WX    TMP DP  RH WIND       PRES   REMARKS
ST. JOSEPH     CLOUDY    73  71  93 N17       29.76R
MOSBY          CLOUDY    73  72  94 CALM      29.70R
WARRENSBURG    CLEAR     73  70  88 S6        29.68S
WHITEMAN AFB   PTCLDY    74  74 100 SW8       29.68F
CLINTON        PTCLDY    73  72  94 S3        29.70S
SEDALIA        CLEAR     75  74  96 S9        29.69F
WARSAW         NOT AVBL
CHILLICOTHE      N/A     75  73  93 S3        29.70R
KIRKSVILLE     HVY RAIN  69  67  93 N20G29    29.75R FOG

$$

MOZ041-047>049-056>058-063>065-088>090-097-231000-
...EASTERN AND SOUTHERN MISSOURI...

CITY           SKY/WX    TMP DP  RH WIND       PRES   REMARKS
ST. LOUIS INTL MOCLDY    79  72  79 SW9       29.71F
SPIRIT OF STL  CLOUDY    76  74  93 S6        29.69F
COLUMBIA       CLOUDY    74  73  97 S7        29.69F
JEFFERSON CITY PTCLDY    77  72  84 CALM      29.69F
ROLLA          CLOUDY    73  72  96 S7        29.72F
OSAGE BEACH    MOCLDY    73  72  96 SE8       29.71F
SPRINGFIELD    MOCLDY    73  72  96 S3        29.72F
BRANSON          N/A     72  72 100 N5        29.73F FOG
JOPLIN         CLEAR     74  72  93 S3        29.71F
WEST PLAINS    CLOUDY    74  73  97 NE5       29.72F

$$

IAZ060-094-KSZ022-034>040-054-083-096-NEZ052-066-093-231000-
...KANSAS...SOUTHEAST NEBRASKA AND IOWA...

CITY           SKY/WX    TMP DP  RH WIND       PRES   REMARKS
TOPEKA         CLOUDY    76  74  93 N9        29.70R
MANHATTAN      MOCLDY    75  68  78 N18G28    29.74R
EMPORIA        MOCLDY    74  72  93 S7        29.68S
CHANUTE        PTCLDY    73  71  93 SE6       29.69F
WICHITA        CLOUDY    76  65  68 NW12      29.74R
OMAHA          MOCLDY    66  58  75 NW9       29.80S
LINCOLN        MOCLDY    68  59  73 N13       29.83R
FALLS CITY     CLOUDY    70  65  84 N8        29.77R
LAMONI         CLOUDY    69  66  90 N14       29.76R
DES MOINES     CLOUDY    68  64  87 N10G22    29.74S

$$





USA.gov is the U.S. government's official web portal to all federal, state and local government web resources and services.